IU2GED-13 Weather Reports


time (UTC)temp
C
wind
direction
speed
KPH
gust
KPH
rain 1hr
cm
rain 24hr
cm
rain mn
cm
humidity
%
barometer
mb
20260507090750 15 136 9.7 16.1 0.10 12.90 0.10 68 1010.3
20260507090234 15 202 9.7 16.1 0.10 12.90 0.10 68 1010.3
20260507085740 15 121 8.0 14.5 0.10 13.00 0.10 68 1010.2
20260507085225 14 111 8.0 19.3 0.10 13.00 0.10 70 1010.2
20260507084731 14 144 12.9 19.3 0.10 13.00 0.10 70 1010.2
20260507084237 14 136 9.7 16.1 0.10 13.00 0.10 70 1010.2
20260507083727 14 165 6.4 16.1 0.10 13.00 0.10 72 1010.2
20260507083231 14 173 9.7 16.1 0.10 13.00 0.10 72 1010.2
20260507082757 14 146 9.7 14.5 0.10 13.00 0.10 69 1010.1
20260507082243 13 199 4.8 9.7 0.10 13.00 0.10 72 1010.1
20260507081727 14 190 1.6 4.8 0.00 12.90 0.08 70 1010.1
20260507081231 13 128 0.0 0.0 0.00 12.90 0.08 68 1010.1
20260507080734 13 140 0.0 6.4 0.00 12.90 0.08 74 1010.1
20260507080238 13 163 0.0 6.4 0.00 12.90 0.08 77 1010.0
20260507075803 12 151 1.6 6.4 0.00 12.90 0.08 78 1010.1
20260507075227 12 139 3.2 4.8 0.00 12.90 0.08 79 1010.1
20260507074734 12 88 1.6 4.8 0.00 12.90 0.08 81 1010.1
20260507074239 12 355 0.0 0.0 0.00 12.90 0.08 81 1010.0
20260507073724 11 355 0.0 3.2 0.00 12.90 0.08 83 1010.1
20260507073228 11 355 0.0 4.8 0.00 12.90 0.08 82 1010.1
20260507072736 11 355 0.0 4.8 0.00 12.90 0.08 82 1010.0
20260507072240 11 360 0.0 6.4 0.00 12.90 0.08 84 1010.0
20260507071726 11 40 3.2 9.7 0.00 12.90 0.08 84 1010.0
20260507071231 11 9 6.4 11.3 0.00 12.90 0.08 83 1009.9
20260507070757 11 45 6.4 9.7 0.00 12.90 0.08 84 1010.0
20260507070240 10 29 4.8 9.7 0.00 12.90 0.08 85 1009.9
20260507065725 10 35 4.8 9.7 0.00 12.90 0.08 86 1009.9
20260507065230 10 314 4.8 9.7 0.00 12.90 0.08 87 1009.9
20260507064734 10 360 3.2 8.0 0.00 12.90 0.08 88 1009.9
20260507064259 10 42 4.8 8.0 0.00 12.90 0.08 88 1009.9
20260507063803 9 360 3.2 6.4 0.00 12.90 0.08 89 1010.0
20260507063226 9 31 3.2 8.0 0.00 12.90 0.08 89 1010.0
20260507062731 9 57 3.2 8.0 0.00 12.90 0.08 88 1010.0
20260507062240 9 342 1.6 9.7 0.00 12.90 0.08 88 1010.0
20260507061744 9 355 4.8 9.7 0.00 12.90 0.08 88 1009.9
20260507061225 9 321 6.4 9.7 0.00 12.90 0.08 88 1009.9
20260507060730 9 355 6.4 12.9 0.00 12.90 0.08 87 1009.9
20260507060255 9 36 8.0 12.9 0.00 12.90 0.08 87 1009.9
20260507055738 9 355 8.0 12.9 0.00 13.89 0.08 89 1009.8
20260507055241 9 360 4.8 9.7 0.00 13.89 0.08 89 1009.9
20260507054726 9 355 3.2 8.0 0.00 13.89 0.08 89 1009.8
20260507054231 9 321 3.2 16.1 0.00 13.89 0.08 89 1009.8
20260507053737 8 52 6.4 16.1 0.00 13.89 0.08 89 1009.6
20260507053239 9 355 4.8 14.5 0.00 13.89 0.08 88 1009.6
20260507052724 9 340 6.4 14.5 0.00 13.89 0.08 88 1009.6
20260507052248 9 74 4.8 14.5 0.00 13.89 0.08 88 1009.6
20260507051732 9 22 1.6 12.9 0.00 13.89 0.08 88 1009.4
20260507051241 9 35 6.4 17.7 0.10 13.89 0.08 88 1009.4
20260507050726 8 333 1.6 17.7 0.20 13.89 0.08 89 1009.3
20260507050230 8 12 3.2 12.9 0.20 13.89 0.08 89 1009.2
20260507045734 8 355 4.8 14.5 0.20 14.20 0.08 89 1009.2
20260507045238 8 315 6.4 20.9 0.20 14.20 0.08 89 1009.2
20260507044723 8 360 9.7 16.1 0.20 14.20 0.08 89 1009.2
20260507044228 8 341 8.0 16.1 0.20 14.20 0.08 89 1009.0
20260507043733 8 351 11.3 16.1 0.20 14.20 0.08 89 1009.0
20260507043238 8 325 9.7 17.7 0.20 14.20 0.08 88 1009.0
20260507042724 9 329 9.7 24.1 0.20 14.20 0.08 86 1009.0
20260507042230 9 344 4.8 29.0 0.20 14.20 0.08 85 1009.1
20260507041736 9 360 16.1 29.0 0.20 14.20 0.08 84 1009.0
20260507041226 9 44 12.9 24.1 0.10 14.10 0.05 85 1009.0
20260507040732 9 31 12.9 24.1 0.00 14.00 0.03 84 1009.0
20260507040236 10 24 12.9 24.1 0.00 14.00 0.03 83 1009.1
20260507035742 10 40 12.9 32.2 0.00 14.00 0.03 82 1009.1
20260507035227 10 42 17.7 32.2 0.00 14.00 0.03 81 1009.0
20260507034753 10 30 14.5 25.7 0.00 14.00 0.03 82 1008.9
20260507034237 10 21 16.1 25.7 0.00 14.00 0.03 82 1009.0
20260507033723 10 15 16.1 25.7 0.00 14.00 0.03 84 1009.0
20260507033229 10 42 9.7 22.5 0.00 14.00 0.03 86 1009.0
20260507032755 10 62 12.9 22.5 0.00 14.00 0.03 88 1009.0
20260507032239 9 325 9.7 19.3 0.00 14.00 0.03 91 1009.0
20260507031729 9 5 11.3 19.3 0.00 14.00 0.03 92 1008.9
20260507031235 9 22 4.8 19.3 0.00 14.00 0.03 93 1009.0
20260507030740 9 5 9.7 17.7 0.00 14.00 0.03 93 1008.8
20260507030223 9 348 6.4 12.9 0.00 14.00 0.03 93 1008.8
20260507025728 9 24 6.4 16.1 0.00 14.10 0.03 93 1009.0
20260507025235 9 44 12.9 16.1 0.00 14.10 0.03 94 1009.0
20260507024740 8 65 6.4 9.7 0.00 14.10 0.03 94 1008.9
20260507024225 8 23 3.2 6.4 0.00 14.10 0.03 93 1008.9
20260507023751 9 15 1.6 6.4 0.00 14.10 0.03 93 1008.8
20260507023234 9 59 3.2 6.4 0.00 14.10 0.03 93 1008.8
20260507022740 9 204 1.6 3.2 0.00 14.10 0.03 93 1008.8
20260507022229 8 204 0.0 3.2 0.00 14.10 0.03 93 1008.7
20260507021733 8 204 1.6 4.8 0.00 14.10 0.03 93 1008.7
20260507021238 9 204 0.0 6.4 0.00 14.10 0.03 93 1008.6
20260507020723 9 208 3.2 6.4 0.00 14.10 0.03 93 1008.6
20260507020248 8 123 3.2 6.4 0.00 14.10 0.03 93 1008.5
20260507015731 8 173 1.6 6.4 0.00 14.81 0.03 93 1008.6
20260507015256 8 182 1.6 8.0 0.00 14.81 0.03 93 1008.5
20260507014741 8 70 4.8 8.0 0.00 14.81 0.03 93 1008.5
20260507014224 8 39 3.2 4.8 0.00 14.81 0.03 93 1008.5
20260507013729 8 24 3.2 4.8 0.00 14.81 0.03 93 1008.5
20260507013233 8 360 1.6 4.8 0.10 14.81 0.03 93 1008.5
20260507012758 8 197 1.6 4.8 0.10 14.81 0.03 93 1008.6
20260507012241 8 27 0.0 6.4 0.10 14.81 0.03 93 1008.5
20260507011726 8 42 4.8 8.0 0.10 14.81 0.03 93 1008.5
20260507011235 8 53 4.8 6.4 0.10 14.81 0.03 93 1008.6
20260507010740 8 169 1.6 6.4 0.10 14.81 0.03 92 1008.5
20260507010245 8 195 4.8 8.0 0.10 14.81 0.03 92 1008.6
20260507005729 8 209 4.8 9.7 0.10 15.19 0.03 93 1008.6
20260507005234 8 338 3.2 9.7 0.10 15.19 0.03 93 1008.6
20260507004738 8 52 4.8 8.0 0.10 15.19 0.03 93 1008.5
20260507004224 8 36 3.2 6.4 0.10 15.19 0.03 93 1008.6
20260507003729 8 36 1.6 8.0 0.10 15.19 0.03 93 1008.6
20260507003235 8 343 4.8 8.0 0.00 15.09 0.00 93 1008.7
20260507002740 8 61 1.6 4.8 0.00 15.09 0.00 93 1008.8
20260507002224 8 145 0.0 4.8 0.00 15.09 0.00 93 1008.7
20260507001748 8 145 1.6 4.8 0.00 15.09 0.00 92 1008.8
20260507001231 8 242 3.2 4.8 0.00 15.09 0.00 92 1008.7
20260507000740 8 98 0.0 4.8 0.00 15.09 0.00 92 1008.7
20260507000247 8 98 3.2 4.8 0.00 15.09 0.00 92 1008.7
20260506235730 8 38 1.6 4.8 0.00 16.00 0.00 92 1008.7
20260506235236 8 55 1.6 3.2 0.00 16.00 0.00 92 1008.8
20260506234742 8 342 1.6 3.2 0.00 16.00 0.00 92 1008.7
20260506234227 8 342 0.0 0.0 0.00 16.00 0.00 92 1008.8
20260506233733 8 342 0.0 1.6 0.00 16.00 0.00 91 1008.8
20260506233238 8 342 0.0 1.6 0.00 16.00 0.00 91 1008.7
20260506232723 8 342 0.0 6.4 0.00 16.00 0.00 91 1008.7
20260506232227 8 77 1.6 6.4 0.00 16.00 0.00 91 1008.7
20260506231731 8 47 3.2 9.7 0.00 16.00 0.00 91 1008.7
20260506231236 8 32 1.6 9.7 0.00 16.00 0.00 91 1008.6
20260506230233 8 277 1.6 8.0 0.00 16.00 0.00 91 1008.6
20260506225739 8 69 1.6 12.9 0.00 16.31 0.00 91 1008.5
20260506225225 8 360 4.8 12.9 0.10 16.31 0.00 91 1008.5
20260506224731 8 355 6.4 14.5 0.10 16.31 0.00 90 1008.5
20260506224257 8 58 8.0 16.1 0.10 16.31 0.00 90 1008.6
20260506223723 8 26 9.7 16.1 0.10 16.31 0.00 90 1008.6
20260506223228 8 22 8.0 11.3 0.10 16.31 0.00 91 1008.6
20260506222732 8 43 1.6 6.4 0.10 16.31 0.00 91 1008.8
20260506222237 8 294 1.6 6.4 0.10 16.31 0.00 91 1008.9
20260506221803 8 311 3.2 6.4 0.10 16.31 0.00 91 1008.9
20260506221227 8 35 3.2 14.5 0.10 16.31 0.00 90 1008.8
20260506220732 8 331 6.4 14.5 0.10 16.31 0.00 90 1008.7
20260506220241 8 49 8.0 19.3 0.10 16.31 0.00 90 1008.7
20260506215725 9 53 9.7 16.1 0.00 17.50 4.11 89 1008.7
20260506215230 9 74 8.0 12.9 0.00 17.50 4.11 89 1008.9
20260506214736 9 37 3.2 6.4 0.00 17.50 4.11 89 1009.0
20260506214241 9 63 3.2 9.7 0.00 17.50 4.11 89 1008.9
20260506213746 8 316 3.2 9.7 0.00 17.50 4.11 89 1008.9
20260506213230 8 355 3.2 8.0 0.00 17.50 4.11 89 1008.9
20260506212735 8 309 1.6 11.3 0.00 17.50 4.11 89 1008.9
20260506212240 9 213 1.6 11.3 0.00 17.50 4.11 88 1008.9
20260506211724 9 319 3.2 17.7 0.00 17.50 4.11 88 1008.8
20260506211228 9 5 6.4 22.5 0.00 17.50 4.11 88 1008.6
20260506210737 9 24 9.7 22.5 0.00 17.50 4.11 88 1008.4
20260506210241 8 42 8.0 17.7 0.00 17.50 4.11 89 1008.6
20260506205726 8 35 8.0 20.9 0.10 17.50 4.11 90 1008.6
20260506205230 8 335 9.7 19.3 0.20 17.50 4.11 90 1008.7
20260506204734 8 319 9.7 16.1 0.30 17.50 4.11 90 1008.7
20260506204236 8 30 3.2 16.1 0.41 17.50 4.11 90 1008.9
20260506203740 8 339 8.0 17.7 0.51 17.50 4.11 90 1008.9
20260506203243 8 355 8.0 22.5 0.61 17.50 4.11 90 1008.8
20260506202727 8 347 6.4 22.5 0.61 17.50 4.11 90 1008.7
20260506202230 8 360 8.0 19.3 0.61 17.50 4.11 90 1008.7
20260506201735 8 5 8.0 24.1 0.61 17.50 4.11 91 1008.8
20260506201240 8 321 12.9 24.1 0.61 17.50 4.11 91 1008.7
20260506200723 8 342 12.9 19.3 0.61 17.50 4.11 91 1008.8
20260506200230 8 355 9.7 19.3 0.71 17.50 4.11 91 1008.7
20260506195731 8 360 8.0 19.3 0.61 17.50 4.09 90 1008.8
20260506195234 8 327 11.3 25.7 0.61 17.40 4.06 89 1008.6
20260506194739 8 338 9.7 25.7 0.61 17.30 4.04 89 1008.5
20260506194239 8 308 14.5 24.1 0.71 17.20 4.01 89 1008.5
20260506193741 8 326 6.4 17.7 0.79 17.09 3.99 89 1008.4
20260506193246 9 315 6.4 17.7 1.09 16.99 3.96 88 1008.4
20260506192727 9 350 4.8 14.5 1.40 16.99 3.96 87 1008.3
20260506192233 9 304 8.0 24.1 1.80 16.99 3.96 86 1008.1
20260506191737 9 25 11.3 29.0 2.11 16.99 3.96 86 1007.9
20260506191242 9 13 14.5 32.2 2.49 16.99 3.96 86 1008.0
20260506190726 9 35 16.1 32.2 2.90 16.99 3.96 87 1008.0
20260506190231 9 18 12.9 24.1 3.20 16.89 3.94 87 1008.0
20260506185756 9 12 12.9 29.0 3.51 17.09 3.94 87 1008.0
20260506185259 9 64 17.7 29.0 3.81 16.99 3.91 88 1008.0
20260506184727 9 46 16.1 27.4 3.91 16.89 3.89 89 1008.0
20260506184254 9 355 17.7 27.4 3.91 16.69 3.84 90 1007.7
20260506183738 9 344 16.1 25.7 3.81 16.41 3.76 90 1007.8
20260506183241 9 25 11.3 27.4 3.61 16.10 3.68 91 1007.9
20260506182725 9 9 16.1 27.4 3.30 15.70 3.58 90 1007.9
20260506182229 10 360 16.1 27.4 3.10 15.39 3.51 90 1007.9
20260506181734 10 54 16.1 25.7 3.10 15.01 3.40 90 1008.1
20260506181239 10 28 14.5 25.7 3.40 14.71 3.33 90 1008.0
20260506180724 10 351 16.1 29.0 3.99 14.30 3.23 90 1007.9
20260506180229 9 9 19.3 29.0 5.21 13.89 3.12 91 1007.7
20260506175735 9 49 14.5 22.5 5.51 13.49 3.02 92 1007.7
20260506175259 9 5 8.0 17.7 5.21 13.21 2.95 91 1007.7
20260506174726 9 323 11.3 17.7 5.00 13.00 2.90 91 1007.7
20260506174228 9 332 8.0 22.5 4.80 12.80 2.84 91 1007.7
20260506173754 9 308 9.7 25.7 4.60 12.60 2.79 91 1007.4
20260506173257 10 43 9.7 25.7 4.50 12.50 2.77 91 1007.1
20260506172741 10 355 12.9 24.1 4.39 12.40 2.74 91 1006.8
20260506172226 10 303 14.5 24.1 4.19 12.19 2.69 91 1006.4
20260506171731 10 17 11.3 22.5 3.91 11.91 2.62 90 1006.2
20260506171235 10 355 12.9 19.3 3.20 11.20 2.44 89 1006.1
20260506170740 11 9 9.7 19.3 2.31 10.31 2.21 88 1006.0
20260506170224 11 15 11.3 17.7 0.41 8.41 1.78 88 1006.1
20260506165729 11 264 8.0 16.1 0.00 8.00 1.63 89 1006.0
20260506165234 12 327 4.8 17.7 0.00 8.00 1.63 88 1004.8
20260506164738 12 360 9.7 24.1 0.00 8.00 1.63 88 1004.6
20260506164242 12 326 11.3 24.1 0.00 8.00 1.63 88 1004.4
20260506163726 12 323 11.3 20.9 0.00 8.00 1.63 87 1004.2
20260506163231 12 327 6.4 17.7 0.00 8.00 1.63 87 1004.5
20260506162755 12 360 9.7 22.5 0.00 8.00 1.63 87 1004.7
20260506162242 12 333 9.7 20.9 0.00 8.00 1.63 87 1004.7
20260506161728 12 351 9.7 19.3 0.00 8.00 1.63 86 1004.5
20260506161233 12 9 8.0 19.3 0.00 8.00 1.63 86 1004.9
20260506160738 12 350 8.0 19.3 0.00 8.00 1.63 86 1004.7
20260506160242 12 333 6.4 16.1 0.00 8.00 1.63 86 1004.9
20260506155726 12 319 6.4 16.1 0.10 8.10 1.63 86 1005.0
20260506155231 12 14 8.0 17.7 0.10 8.10 1.63 86 1004.7
20260506154735 12 5 8.0 19.3 0.10 8.10 1.63 85 1004.8
20260506154240 12 336 6.4 19.3 0.10 8.10 1.63 86 1004.7
20260506153724 13 355 4.8 8.0 0.10 8.10 1.63 87 1004.6
20260506153230 13 15 4.8 16.1 0.10 8.10 1.63 86 1004.7
20260506152818 13 53 6.4 16.1 0.10 8.10 1.63 85 1004.7
20260506152239 13 289 6.4 12.9 0.10 8.10 1.63 86 1004.7
20260506151723 13 351 6.4 16.1 0.10 8.10 1.63 85 1004.7
20260506151229 13 347 4.8 16.1 0.10 8.10 1.63 85 1004.8
20260506150752 13 331 8.0 17.7 0.10 8.10 1.63 85 1004.8
20260506150236 13 329 9.7 17.7 0.10 8.10 1.63 86 1004.9
20260506145800 13 291 9.7 17.7 0.00 8.00 1.60 87 1004.9
20260506145223 13 316 8.0 19.3 0.00 8.00 1.60 86 1005.0
20260506144728 13 302 4.8 19.3 0.00 8.00 1.60 86 1005.1
20260506144233 13 300 6.4 14.5 0.00 8.00 1.60 86 1005.0
20260506143738 13 323 6.4 12.9 0.00 8.00 1.60 86 1005.2
20260506143303 13 347 6.4 9.7 0.00 8.00 1.60 86 1005.3
20260506142727 12 11 4.8 8.0 0.00 8.00 1.60 86 1005.4
20260506142232 12 331 4.8 8.0 0.10 8.00 1.60 87 1005.6
20260506141741 13 16 3.2 8.0 0.30 8.00 1.60 88 1005.6
20260506141224 12 318 3.2 9.7 0.51 8.00 1.60 88 1005.6
20260506140748 12 302 6.4 9.7 0.71 8.00 1.60 88 1005.7
20260506140252 12 340 3.2 6.4 0.89 8.00 1.60 89 1005.7
20260506135736 12 19 3.2 6.4 1.09 8.00 1.60 89 1005.9
20260506135241 12 360 3.2 6.4 1.19 8.00 1.60 89 1005.9
20260506134725 12 53 3.2 6.4 1.30 8.00 1.60 89 1006.1
20260506134231 12 335 3.2 6.4 1.30 8.00 1.60 89 1006.0
20260506133736 12 22 1.6 4.8 1.30 8.00 1.60 89 1006.1
20260506133241 12 330 1.6 4.8 1.30 8.00 1.60 89 1006.1
20260506132725 12 24 1.6 4.8 1.30 8.00 1.60 89 1006.1
20260506132230 12 346 0.0 4.8 1.09 7.80 1.55 89 1006.2
20260506131735 12 31 0.0 6.4 0.99 7.70 1.52 89 1006.2
20260506131242 12 66 3.2 6.4 0.79 7.49 1.47 88 1006.2
20260506130729 12 42 3.2 4.8 0.61 7.29 1.42 88 1006.1
20260506130233 12 66 1.6 4.8 0.41 7.11 1.37 87 1006.1
20260506125737 12 5 3.2 4.8 0.20 6.91 1.32 86 1006.0
20260506125241 12 66 0.0 6.4 0.10 6.81 1.30 85 1006.1
20260506124725 12 331 3.2 6.4 0.00 6.71 1.27 84 1006.1
20260506124230 13 360 0.0 0.0 0.00 6.71 1.27 84 1005.9
20260506123735 13 360 0.0 0.0 0.00 6.71 1.27 83 1005.9
20260506123240 13 298 0.0 1.6 0.00 6.71 1.27 83 1006.1
20260506122727 13 298 0.0 3.2 0.00 6.71 1.27 82 1006.2
20260506122252 13 298 1.6 3.2 0.00 6.71 1.27 80 1006.3
20260506121755 13 298 0.0 4.8 0.00 6.71 1.27 79 1006.3
20260506121238 13 298 3.2 4.8 0.00 6.71 1.27 80 1006.3
20260506120723 13 360 0.0 6.4 0.10 6.71 1.27 84 1006.3
20260506120231 13 5 3.2 6.4 0.10 6.71 1.27 82 1006.4
20260506115756 13 59 1.6 4.8 0.10 6.71 1.27 85 1006.4
20260506115239 13 59 0.0 3.2 0.10 6.71 1.27 86 1006.4
20260506114724 12 40 0.0 4.8 0.10 6.71 1.27 86 1006.6
20260506114248 12 74 1.6 4.8 0.10 6.71 1.27 86 1006.6
20260506113728 12 355 1.6 4.8 0.10 6.71 1.27 87 1006.6
20260506113233 11 219 1.6 4.8 0.10 6.71 1.27 88 1006.5
20260506112737 11 355 3.2 14.5 0.10 6.71 1.27 89 1006.5
20260506112305 11 298 4.8 16.1 0.20 6.71 1.27 90 1006.6
20260506111746 11 344 6.4 16.1 0.30 6.71 1.27 90 1006.6
20260506111247 11 339 6.4 16.1 0.30 6.71 1.27 91 1006.5
20260506110732 11 21 6.4 12.9 0.30 6.60 1.24 91 1006.6
20260506110238 11 288 1.6 9.7 0.41 6.60 1.24 92 1006.9
20260506105745 11 336 3.2 8.0 0.61 6.71 1.24 92 1006.9
20260506105228 11 44 4.8 12.9 0.71 6.71 1.24 92 1007.0
20260506104733 11 322 6.4 12.9 0.79 6.71 1.24 92 1006.8
20260506104239 11 334 6.4 14.5 0.89 6.71 1.24 92 1006.9
20260506103728 11 12 6.4 14.5 0.99 6.71 1.24 92 1007.0
20260506103234 11 343 6.4 12.9 0.99 6.71 1.24 92 1007.1
20260506102739 11 355 3.2 8.0 1.09 6.71 1.24 92 1007.2
20260506102224 11 346 1.6 8.0 0.99 6.60 1.22 92 1007.3
20260506101729 11 316 4.8 9.7 0.89 6.50 1.19 92 1007.3
20260506101235 11 5 6.4 12.9 0.89 6.50 1.19 92 1007.4
20260506100742 11 21 4.8 8.0 0.79 6.40 1.17 91 1007.1
20260506100225 11 12 4.8 8.0 0.71 6.30 1.14 91 1007.1
20260506095730 11 22 4.8 6.4 0.61 6.81 1.09 90 1007.1
20260506095235 11 266 0.0 6.4 0.51 6.71 1.07 90 1007.3
20260506094740 11 277 4.8 8.0 0.41 6.60 1.04 90 1007.5
20260506094224 11 200 0.0 12.9 0.30 6.50 1.02 90 1007.2
20260506093748 11 246 3.2 14.5 0.20 6.40 0.99 90 1007.0
20260506093233 11 304 4.8 12.9 0.20 6.40 0.99 90 1006.9
20260506092743 11 27 3.2 14.5 0.10 6.30 0.97 90 1006.6
20260506092228 11 17 6.4 14.5 0.10 6.30 0.97 89 1006.4
20260506091734 11 333 6.4 12.9 0.10 6.30 0.97 89 1006.4
20260506091258 11 15 4.8 6.4 0.10 6.30 0.97 89 1006.6